• en France
  • Liste des pays
  • À 7 jours
  • Température de l'eau
  • Carte satellitaire
  • Carte météo
  • Widgets météo
  • user-avatar
    Se connecter

    Météo par heure à Gorbunovo

    Ce jour, 20 Septembre, Jeudi

    Heure Température Précipitation Vent Pression Humidité
    00:00 +15°C° 0 mm 2 m/s 753 mmHg 95%
    01:00 +14°C° 0 mm 2 m/s 753 mmHg 96%
    02:00 +13°C° 0 mm 2 m/s 753 mmHg 98%
    03:00 +13°C° 0 mm 2 m/s 753 mmHg 98%
    04:00 +13°C° 0 mm 2 m/s 753 mmHg 98%
    05:00 +13°C° 0 mm 2 m/s 754 mmHg 98%
    06:00 +13°C° 0 mm 3 m/s 754 mmHg 95%
    07:00 +13°C° 0 mm 3 m/s 754 mmHg 92%
    08:00 +14°C° 0 mm 3 m/s 754 mmHg 89%
    09:00 +17°C° 0 mm 3 m/s 754 mmHg 82%
    10:00 +19°C° 0 mm 3 m/s 754 mmHg 74%
    11:00 +21°C° 0 mm 3 m/s 754 mmHg 67%
    12:00 +22°C° 0 mm 4 m/s 754 mmHg 63%
    13:00 +23°C° 0 mm 4 m/s 754 mmHg 59%
    14:00 +25°C° 0 mm 4 m/s 754 mmHg 55%
    15:00 +23°C° 0 mm 4 m/s 754 mmHg 59%
    16:00 +24°C° 0 mm 3 m/s 754 mmHg 64%
    17:00 +22°C° 0 mm 3 m/s 753 mmHg 69%
    18:00 +21°C° 0 mm 3 m/s 754 mmHg 74%
    19:00 +19°C° 0 mm 2 m/s 754 mmHg 80%
    20:00 +18°C° 0 mm 2 m/s 754 mmHg 86%
    21:00 +17°C° 0 mm 2 m/s 754 mmHg 89%
    22:00 +17°C° 0 mm 2 m/s 754 mmHg 91%
    23:00 +17°C° 0 mm 2 m/s 754 mmHg 94%

    Demain, 21 Septembre, Vendredi

    Heure Température Précipitation Vent Pression Humidité
    00:00 +16°C° 0 mm 2 m/s 754 mmHg 95%
    01:00 +16°C° 0 mm 2 m/s 754 mmHg 95%
    02:00 +16°C° 0 mm 2 m/s 754 mmHg 96%
    03:00 +16°C° 0 mm 2 m/s 754 mmHg 95%
    04:00 +16°C° 0 mm 2 m/s 754 mmHg 95%
    05:00 +16°C° 0 mm 2 m/s 754 mmHg 95%
    06:00 +17°C° 0 mm 2 m/s 754 mmHg 91%
    07:00 +18°C° 0 mm 3 m/s 754 mmHg 88%
    08:00 +19°C° 0 mm 3 m/s 754 mmHg 85%
    09:00 +20°C° 0 mm 3 m/s 754 mmHg 79%
    10:00 +22°C° 0 mm 3 m/s 754 mmHg 74%
    11:00 +23°C° 0 mm 4 m/s 753 mmHg 68%
    12:00 +25°C° 0 mm 4 m/s 753 mmHg 64%
    13:00 +26°C° 0 mm 4 m/s 753 mmHg 61%
    14:00 +27°C° 0 mm 5 m/s 752 mmHg 57%
    15:00 +26°C° 0 mm 4 m/s 752 mmHg 61%
    16:00 +26°C° 0 mm 4 m/s 751 mmHg 65%
    17:00 +25°C° 0 mm 3 m/s 751 mmHg 69%
    18:00 +23°C° 0 mm 4 m/s 751 mmHg 71%
    19:00 +22°C° 0 mm 4 m/s 750 mmHg 74%
    20:00 +21°C° 0 mm 5 m/s 750 mmHg 76%
    21:00 +20°C° 0 mm 5 m/s 750 mmHg 75%
    22:00 +20°C° 0 mm 5 m/s 749 mmHg 74%
    23:00 +19°C° 0 mm 5 m/s 749 mmHg 72%

    Après-demain, 22 Septembre, Samedi

    Heure Température Précipitation Vent Pression Humidité
    00:00 +19°C° 0 mm 5 m/s 748 mmHg 73%
    01:00 +19°C° 0 mm 5 m/s 747 mmHg 73%
    02:00 +19°C° 0 mm 6 m/s 746 mmHg 73%
    03:00 +19°C° 0 mm 5 m/s 746 mmHg 72%
    04:00 +19°C° 0 mm 5 m/s 746 mmHg 71%
    05:00 +17°C° 0 mm 5 m/s 745 mmHg 70%
    06:00 +16°C° 0.4 mm 5 m/s 746 mmHg 74%
    07:00 +15°C° 0.4 mm 5 m/s 746 mmHg 77%
    08:00 +14°C° 0.4 mm 5 m/s 747 mmHg 81%
    09:00 +14°C° 0.7 mm 5 m/s 747 mmHg 82%
    10:00 +13°C° 0.7 mm 5 m/s 748 mmHg 83%
    11:00 +13°C° 0.7 mm 4 m/s 749 mmHg 83%
    12:00 +13°C° 0 mm 4 m/s 749 mmHg 79%
    13:00 +14°C° 0 mm 4 m/s 749 mmHg 74%
    14:00 +14°C° 0 mm 4 m/s 749 mmHg 70%
    15:00 +14°C° 0.1 mm 4 m/s 749 mmHg 70%
    16:00 +13°C° 0.1 mm 4 m/s 749 mmHg 71%
    17:00 +13°C° 0.1 mm 4 m/s 749 mmHg 72%
    18:00 +12°C° 0.1 mm 4 m/s 749 mmHg 73%
    19:00 +12°C° 0.1 mm 4 m/s 749 mmHg 75%
    20:00 +11°C° 0.1 mm 4 m/s 749 mmHg 77%
    21:00 +10°C° 0 mm 3 m/s 749 mmHg 79%
    22:00 +10°C° 0 mm 3 m/s 749 mmHg 82%
    23:00 +9°C° 0 mm 3 m/s 749 mmHg 84%

    23 Septembre, Dimanche

    Heure Température Précipitation Vent Pression Humidité
    00:00 +9°C° 0 mm 3 m/s 749 mmHg 85%
    01:00 +8°C° 0 mm 3 m/s 749 mmHg 86%
    02:00 +7°C° 0 mm 4 m/s 749 mmHg 86%
    03:00 +7°C° 0 mm 4 m/s 748 mmHg 86%
    04:00 +7°C° 0 mm 4 m/s 748 mmHg 85%
    05:00 +7°C° 0 mm 4 m/s 748 mmHg 85%
    06:00 +8°C° 0 mm 5 m/s 747 mmHg 83%
    07:00 +8°C° 0 mm 5 m/s 747 mmHg 81%
    08:00 +9°C° 0 mm 6 m/s 747 mmHg 79%
    09:00 +10°C° 0.1 mm 6 m/s 747 mmHg 75%
    10:00 +11°C° 0.1 mm 6 m/s 747 mmHg 71%
    11:00 +13°C° 0.1 mm 6 m/s 747 mmHg 68%
    12:00 +13°C° 0.3 mm 6 m/s 747 mmHg 66%
    13:00 +13°C° 0.3 mm 6 m/s 747 mmHg 65%
    14:00 +13°C° 0.3 mm 6 m/s 747 mmHg 64%
    15:00 +13°C° 0.2 mm 5 m/s 747 mmHg 67%
    16:00 +12°C° 0.2 mm 4 m/s 747 mmHg 70%
    17:00 +11°C° 0.2 mm 4 m/s 747 mmHg 72%
    18:00 +10°C° 0 mm 3 m/s 747 mmHg 77%
    19:00 +9°C° 0 mm 3 m/s 747 mmHg 81%
    20:00 +8°C° 0 mm 3 m/s 747 mmHg 86%
    21:00 +8°C° 0 mm 3 m/s 746 mmHg 87%
    22:00 +7°C° 0 mm 3 m/s 746 mmHg 88%
    23:00 +7°C° 0 mm 3 m/s 746 mmHg 89%

    24 Septembre, Lundi

    Heure Température Précipitation Vent Pression Humidité
    00:00 +7°C° 0 mm 3 m/s 746 mmHg 91%
    01:00 +7°C° 0 mm 2 m/s 745 mmHg 93%
    02:00 +6°C° 0 mm 2 m/s 745 mmHg 95%
    03:00 +6°C° 0 mm 2 m/s 745 mmHg 95%
    04:00 +6°C° 0 mm 2 m/s 744 mmHg 96%
    05:00 +7°C° 0 mm 1 m/s 744 mmHg 96%
    06:00 +7°C° 0.2 mm 2 m/s 743 mmHg 95%
    07:00 +7°C° 0.2 mm 2 m/s 742 mmHg 94%
    08:00 +8°C° 0.2 mm 2 m/s 741 mmHg 93%
    09:00 +8°C° 0.9 mm 3 m/s 741 mmHg 92%
    10:00 +7°C° 0.9 mm 4 m/s 740 mmHg 92%
    11:00 +7°C° 0.9 mm 5 m/s 739 mmHg 91%
    12:00 +7°C° 2.2 mm 6 m/s 738 mmHg 91%
    13:00 +7°C° 2.2 mm 6 m/s 738 mmHg 91%
    14:00 +6°C° 2.2 mm 7 m/s 737 mmHg 91%
    15:00 +6°C° 1.5 mm 7 m/s 737 mmHg 90%
    16:00 +6°C° 1.5 mm 8 m/s 737 mmHg 90%
    17:00 +6°C° 1.5 mm 8 m/s 737 mmHg 89%
    18:00 +6°C° 0.7 mm 8 m/s 738 mmHg 88%
    19:00 +5°C° 0.7 mm 8 m/s 739 mmHg 87%
    20:00 +5°C° 0.7 mm 7 m/s 739 mmHg 87%
    21:00 +5°C° 0.2 mm 7 m/s 740 mmHg 86%
    22:00 +5°C° 0.2 mm 7 m/s 741 mmHg 84%
    23:00 +4°C° 0.2 mm 7 m/s 741 mmHg 83%

    25 Septembre, Mardi

    Heure Température Précipitation Vent Pression Humidité
    00:00 +4°C° 0 mm 7 m/s 742 mmHg 82%
    01:00 +4°C° 0 mm 7 m/s 743 mmHg 80%
    02:00 +4°C° 0 mm 6 m/s 744 mmHg 79%
    03:00 +4°C° 0 mm 6 m/s 744 mmHg 77%
    04:00 +4°C° 0 mm 6 m/s 745 mmHg 76%
    05:00 +3°C° 0 mm 6 m/s 746 mmHg 74%
    06:00 +4°C° 0 mm 7 m/s 746 mmHg 71%
    07:00 +4°C° 0 mm 7 m/s 747 mmHg 67%
    08:00 +4°C° 0 mm 7 m/s 748 mmHg 64%
    09:00 +5°C° 0 mm 7 m/s 748 mmHg 59%
    10:00 +6°C° 0 mm 7 m/s 749 mmHg 54%
    11:00 +8°C° 0 mm 7 m/s 750 mmHg 49%
    12:00 +9°C° 0 mm 7 m/s 750 mmHg 49%
    13:00 +9°C° 0 mm 7 m/s 751 mmHg 50%
    14:00 +10°C° 0 mm 7 m/s 751 mmHg 50%
    15:00 +9°C° 0 mm 6 m/s 752 mmHg 53%
    16:00 +9°C° 0 mm 5 m/s 752 mmHg 57%
    17:00 +8°C° 0 mm 4 m/s 753 mmHg 60%
    18:00 +7°C° 0 mm 4 m/s 753 mmHg 63%
    19:00 +6°C° 0 mm 4 m/s 754 mmHg 67%
    20:00 +5°C° 0 mm 4 m/s 754 mmHg 70%
    21:00 +5°C° 0 mm 4 m/s 755 mmHg 71%
    22:00 +5°C° 0 mm 4 m/s 755 mmHg 73%
    23:00 +4°C° 0 mm 4 m/s 755 mmHg 75%
    Voir plus